TimeEDT,TemperatureF,Dew PointF,Humidity,Sea Level PressureIn,VisibilityMPH,Wind Direction,Wind SpeedMPH,Gust SpeedMPH,PrecipitationIn,Events,Conditions,WindDirDegrees,DateUTC
12:15 AM,55.9,52.5,88,30.14,10.0,Calm,Calm,-,N/A,,Clear,0,2013-09-16 04:15:00
12:35 AM,55.6,51.8,87,30.15,10.0,Calm,Calm,-,N/A,,Scattered Clouds,0,2013-09-16 04:35:00
12:55 AM,55.6,52.7,90,30.14,10.0,Calm,Calm,-,N/A,,Mostly Cloudy,0,2013-09-16 04:55:00
1:15 AM,55.2,52.5,91,30.15,10.0,Calm,Calm,-,N/A,,Overcast,0,2013-09-16 05:15:00
1:35 AM,54.5,51.4,89,30.15,10.0,Calm,Calm,-,N/A,,Overcast,0,2013-09-16 05:35:00
1:55 AM,54.7,52.2,91,30.15,10.0,Calm,Calm,-,N/A,,Scattered Clouds,0,2013-09-16 05:55:00
2:15 AM,54.5,52.0,91,30.14,10.0,Calm,Calm,-,N/A,,Clear,0,2013-09-16 06:15:00
2:35 AM,54.0,51.6,92,30.14,7.0,Calm,Calm,-,N/A,,Clear,0,2013-09-16 06:35:00
2:55 AM,52.0,49.8,92,30.14,7.0,Calm,Calm,-,N/A,,Clear,0,2013-09-16 06:55:00
3:15 AM,51.6,49.3,92,30.14,7.0,Calm,Calm,-,N/A,,Clear,0,2013-09-16 07:15:00
3:35 AM,52.3,50.0,92,30.13,10.0,Calm,Calm,-,N/A,,Clear,0,2013-09-16 07:35:00
3:55 AM,52.2,50.2,93,30.13,7.0,Calm,Calm,-,N/A,,Clear,0,2013-09-16 07:55:00
4:15 AM,52.3,50.2,92,30.13,5.0,Calm,Calm,-,N/A,,Clear,0,2013-09-16 08:15:00
4:35 AM,51.8,48.9,90,30.12,10.0,Calm,Calm,-,N/A,,Clear,0,2013-09-16 08:35:00
4:55 AM,51.4,49.3,92,30.11,7.0,Calm,Calm,-,N/A,,Clear,0,2013-09-16 08:55:00
5:15 AM,50.5,48.0,91,30.11,7.0,Calm,Calm,-,N/A,,Clear,0,2013-09-16 09:15:00
5:35 AM,51.6,49.5,92,30.12,7.0,Calm,Calm,-,N/A,,Clear,0,2013-09-16 09:35:00
5:55 AM,51.1,48.7,92,30.12,7.0,Calm,Calm,-,N/A,,Scattered Clouds,0,2013-09-16 09:55:00
6:15 AM,53.4,51.1,92,30.12,7.0,Calm,Calm,-,N/A,,Scattered Clouds,0,2013-09-16 10:15:00
6:35 AM,52.9,50.4,91,30.12,10.0,Calm,Calm,-,N/A,,Scattered Clouds,0,2013-09-16 10:35:00
6:55 AM,54.7,52.7,93,30.12,10.0,Calm,Calm,-,N/A,,Scattered Clouds,0,2013-09-16 10:55:00
7:15 AM,54.1,52.0,92,30.13,7.0,Calm,Calm,-,N/A,,Scattered Clouds,0,2013-09-16 11:15:00
7:35 AM,56.1,53.6,91,30.12,7.0,Calm,Calm,-,N/A,,Scattered Clouds,0,2013-09-16 11:35:00
7:55 AM,57.0,54.1,90,30.12,7.0,Calm,Calm,-,N/A,,Clear,0,2013-09-16 11:55:00
8:15 AM,57.7,55.4,92,30.13,7.0,Calm,Calm,-,N/A,,Mostly Cloudy,0,2013-09-16 12:15:00
8:35 AM,58.5,55.4,90,30.14,7.0,ENE,3.5,-,N/A,Rain,Light Rain,60,2013-09-16 12:35:00
8:55 AM,57.7,55.4,92,30.14,7.0,Calm,Calm,-,N/A,,Overcast,0,2013-09-16 12:55:00
9:15 AM,59.0,56.5,91,30.14,5.0,Calm,Calm,-,N/A,,Overcast,0,2013-09-16 13:15:00
9:35 AM,59.4,56.7,91,30.17,7.0,NNE,6.9,-,N/A,,Overcast,20,2013-09-16 13:35:00
9:55 AM,60.6,57.4,89,30.17,7.0,Calm,Calm,-,N/A,Rain,Light Rain,0,2013-09-16 13:55:00
10:15 AM,61.7,57.2,85,30.17,10.0,Calm,Calm,-,N/A,,Overcast,0,2013-09-16 14:15:00
10:35 AM,63.3,58.1,83,30.17,10.0,North,6.9,-,N/A,,Overcast,350,2013-09-16 14:35:00
10:55 AM,64.0,58.1,81,30.18,10.0,NE,5.8,-,N/A,,Overcast,40,2013-09-16 14:55:00
11:15 AM,63.5,57.7,81,30.18,10.0,NE,8.1,-,N/A,,Overcast,50,2013-09-16 15:15:00
11:35 AM,63.0,57.4,82,30.19,10.0,NE,8.1,-,N/A,,Overcast,50,2013-09-16 15:35:00
11:55 AM,62.6,57.7,84,30.19,10.0,ENE,3.5,-,N/A,,Overcast,60,2013-09-16 15:55:00
12:15 PM,62.2,57.0,83,30.19,10.0,NNE,5.8,-,N/A,,Overcast,30,2013-09-16 16:15:00
12:35 PM,62.6,56.7,81,30.19,10.0,NE,5.8,-,N/A,,Overcast,40,2013-09-16 16:35:00
12:55 PM,63.0,57.0,81,30.19,10.0,NE,3.5,-,N/A,,Overcast,50,2013-09-16 16:55:00
1:15 PM,64.4,57.6,78,30.19,10.0,NE,4.6,-,N/A,,Overcast,50,2013-09-16 17:15:00
1:35 PM,64.6,57.0,76,30.19,10.0,ENE,4.6,-,N/A,,Overcast,60,2013-09-16 17:35:00
1:55 PM,66.2,57.2,73,30.19,10.0,NNE,4.6,-,N/A,,Overcast,20,2013-09-16 17:55:00
2:15 PM,66.6,57.0,71,30.19,10.0,North,8.1,-,N/A,,Overcast,10,2013-09-16 18:15:00
2:35 PM,63.9,54.9,72,30.20,10.0,NNE,15.0,-,N/A,,Overcast,20,2013-09-16 18:35:00
2:55 PM,62.6,53.4,72,30.20,10.0,NNE,10.4,-,N/A,,Overcast,20,2013-09-16 18:55:00
3:15 PM,64.9,52.7,64,30.19,10.0,North,10.4,18.4,N/A,,Overcast,10,2013-09-16 19:15:00
3:35 PM,64.0,52.5,66,30.19,10.0,North,10.4,-,N/A,,Overcast,10,2013-09-16 19:35:00
3:55 PM,65.5,52.3,62,30.19,10.0,North,9.2,-,N/A,,Overcast,10,2013-09-16 19:55:00
4:15 PM,65.8,51.4,60,30.18,10.0,North,11.5,18.4,N/A,,Overcast,10,2013-09-16 20:15:00
4:35 PM,65.7,51.6,60,30.19,10.0,North,11.5,-,N/A,,Overcast,360,2013-09-16 20:35:00
4:55 PM,65.5,51.3,60,30.19,10.0,North,10.4,-,N/A,,Overcast,360,2013-09-16 20:55:00
5:15 PM,66.2,51.3,59,30.20,10.0,North,9.2,-,N/A,,Overcast,10,2013-09-16 21:15:00
5:35 PM,67.1,51.1,56,30.20,10.0,North,8.1,-,N/A,,Mostly Cloudy,360,2013-09-16 21:35:00
5:55 PM,65.8,50.9,58,30.20,10.0,North,9.2,16.1,N/A,,Overcast,360,2013-09-16 21:55:00
6:15 PM,65.7,50.9,59,30.21,10.0,North,12.7,18.4,N/A,,Mostly Cloudy,10,2013-09-16 22:15:00
6:35 PM,64.8,51.1,61,30.21,10.0,North,6.9,-,N/A,,Overcast,10,2013-09-16 22:35:00
6:55 PM,64.4,51.1,62,30.22,10.0,North,5.8,-,N/A,,Overcast,10,2013-09-16 22:55:00
7:15 PM,63.5,51.3,64,30.22,10.0,North,3.5,-,N/A,,Overcast,360,2013-09-16 23:15:00
7:35 PM,60.8,50.9,70,30.23,10.0,Calm,Calm,-,N/A,,Scattered Clouds,0,2013-09-16 23:35:00
7:55 PM,60.3,50.9,71,30.23,10.0,Calm,Calm,-,N/A,,Scattered Clouds,0,2013-09-16 23:55:00
8:15 PM,55.4,50.5,84,30.23,10.0,Calm,Calm,-,N/A,,Scattered Clouds,0,2013-09-17 00:15:00
8:35 PM,55.8,50.9,84,30.24,10.0,Calm,Calm,-,N/A,,Clear,0,2013-09-17 00:35:00
8:55 PM,54.0,49.8,86,30.25,10.0,Calm,Calm,-,N/A,,Clear,0,2013-09-17 00:55:00
9:15 PM,53.8,50.2,88,30.26,10.0,Calm,Calm,-,N/A,,Clear,0,2013-09-17 01:15:00
9:35 PM,51.3,47.5,87,30.27,10.0,Calm,Calm,-,N/A,,Clear,0,2013-09-17 01:35:00
9:55 PM,50.9,48.0,90,30.27,10.0,Calm,Calm,-,N/A,,Clear,0,2013-09-17 01:55:00
10:15 PM,50.9,48.4,91,30.27,7.0,Calm,Calm,-,N/A,,Clear,0,2013-09-17 02:15:00
10:35 PM,49.6,47.1,91,30.27,5.0,Calm,Calm,-,N/A,,Clear,0,2013-09-17 02:35:00
10:55 PM,48.2,45.7,91,30.28,7.0,Calm,Calm,-,N/A,,Clear,0,2013-09-17 02:55:00
11:15 PM,48.2,45.9,92,30.28,7.0,Calm,Calm,-,N/A,,Scattered Clouds,0,2013-09-17 03:15:00
11:35 PM,48.9,46.4,91,30.29,7.0,Calm,Calm,-,N/A,,Scattered Clouds,0,2013-09-17 03:35:00
11:55 PM,48.9,46.6,92,30.29,7.0,Calm,Calm,-,N/A,,Scattered Clouds,0,2013-09-17 03:55:00